When you browse on this site, cookies collect data to enhance your experience and personalize the content and advertising you see.
Visit our Privacy Policy to learn more. By continuing to use the site, you agree to this use of cookies and data.
  • In Romania
  • List of Countries
  • For 7 days
  • Water Temperature
  • Satellite Maps
  • Weather Map
  • Weather Widgets
  • user-avatar
    Login

    Hourly Weather Arontorp

    Today, 17 July, Wednesday

    Time Temperature Precipitation Wind Pressure Humidity
    00:00 +10°C° 0 mm 5 mps 754 mmHg 92%
    01:00 +11°C° 0 mm 4 mps 754 mmHg 94%
    02:00 +11°C° 0 mm 4 mps 754 mmHg 95%
    03:00 +11°C° 0 mm 4 mps 754 mmHg 96%
    04:00 +11°C° 0 mm 4 mps 754 mmHg 97%
    05:00 +11°C° 0 mm 4 mps 754 mmHg 93%
    06:00 +12°C° 0 mm 4 mps 754 mmHg 88%
    07:00 +13°C° 0 mm 4 mps 755 mmHg 84%
    08:00 +16°C° 0 mm 3 mps 755 mmHg 77%
    09:00 +17°C° 0 mm 3 mps 755 mmHg 71%
    10:00 +18°C° 0 mm 2 mps 755 mmHg 64%
    11:00 +19°C° 0 mm 2 mps 755 mmHg 62%
    12:00 +20°C° 0 mm 2 mps 755 mmHg 61%
    13:00 +22°C° 0 mm 1 mps 755 mmHg 59%
    14:00 +21°C° 0 mm 2 mps 755 mmHg 61%
    15:00 +20°C° 0 mm 2 mps 755 mmHg 62%
    16:00 +20°C° 0 mm 2 mps 755 mmHg 64%
    17:00 +19°C° 0 mm 2 mps 755 mmHg 68%
    18:00 +19°C° 0 mm 2 mps 755 mmHg 71%
    19:00 +18°C° 0 mm 2 mps 755 mmHg 75%
    20:00 +18°C° 0 mm 1 mps 755 mmHg 81%
    21:00 +15°C° 0 mm 1 mps 755 mmHg 87%
    22:00 +14°C° 0 mm 1 mps 756 mmHg 93%
    23:00 +14°C° 0 mm 1 mps 756 mmHg 93%

    Tomorrow, 18 July, Thursday

    Time Temperature Precipitation Wind Pressure Humidity
    00:00 +14°C° 0 mm 1 mps 756 mmHg 93%
    01:00 +12°C° 0 mm 0 mps 756 mmHg 93%
    02:00 +13°C° 0 mm 1 mps 756 mmHg 93%
    03:00 +13°C° 0 mm 1 mps 755 mmHg 93%
    04:00 +13°C° 0 mm 2 mps 755 mmHg 94%
    05:00 +14°C° 0 mm 1 mps 755 mmHg 86%
    06:00 +16°C° 0 mm 1 mps 756 mmHg 78%
    07:00 +19°C° 0 mm 1 mps 756 mmHg 70%
    08:00 +20°C° 0 mm 1 mps 756 mmHg 63%
    09:00 +21°C° 0 mm 2 mps 756 mmHg 57%
    10:00 +23°C° 0 mm 2 mps 756 mmHg 50%
    11:00 +23°C° 0 mm 2 mps 756 mmHg 49%
    12:00 +23°C° 0 mm 2 mps 756 mmHg 48%
    13:00 +22°C° 0 mm 3 mps 756 mmHg 48%
    14:00 +22°C° 0 mm 3 mps 756 mmHg 49%
    15:00 +22°C° 0 mm 3 mps 756 mmHg 50%
    16:00 +21°C° 0 mm 3 mps 756 mmHg 52%
    17:00 +20°C° 0 mm 2 mps 756 mmHg 57%
    18:00 +20°C° 0 mm 2 mps 756 mmHg 63%
    19:00 +19°C° 0 mm 2 mps 756 mmHg 68%
    20:00 +17°C° 0 mm 2 mps 756 mmHg 75%
    21:00 +16°C° 0 mm 2 mps 756 mmHg 81%
    22:00 +15°C° 0 mm 2 mps 757 mmHg 87%
    23:00 +14°C° 0 mm 2 mps 756 mmHg 88%

    Day after tomorrow, 19 July, Friday

    Time Temperature Precipitation Wind Pressure Humidity
    00:00 +14°C° 0 mm 2 mps 756 mmHg 89%
    01:00 +14°C° 0 mm 2 mps 756 mmHg 91%
    02:00 +14°C° 0 mm 2 mps 756 mmHg 91%
    03:00 +13°C° 0 mm 1 mps 756 mmHg 91%
    04:00 +13°C° 0 mm 1 mps 756 mmHg 92%
    05:00 +15°C° 0 mm 1 mps 756 mmHg 83%
    06:00 +18°C° 0 mm 1 mps 756 mmHg 74%
    07:00 +20°C° 0 mm 1 mps 756 mmHg 66%
    08:00 +21°C° 0 mm 1 mps 756 mmHg 60%
    09:00 +21°C° 0 mm 2 mps 756 mmHg 54%
    10:00 +24°C° 0 mm 2 mps 756 mmHg 49%
    11:00 +24°C° 0 mm 3 mps 756 mmHg 49%
    12:00 +24°C° 0 mm 3 mps 756 mmHg 48%
    13:00 +23°C° 0 mm 4 mps 756 mmHg 48%
    14:00 +23°C° 0 mm 4 mps 756 mmHg 49%
    15:00 +23°C° 0 mm 4 mps 756 mmHg 50%
    16:00 +22°C° 0 mm 4 mps 756 mmHg 51%
    17:00 +21°C° 0 mm 4 mps 756 mmHg 56%
    18:00 +21°C° 0 mm 4 mps 756 mmHg 61%
    19:00 +20°C° 0 mm 3 mps 756 mmHg 65%
    20:00 +19°C° 0 mm 3 mps 757 mmHg 70%
    21:00 +18°C° 0 mm 3 mps 757 mmHg 74%
    22:00 +16°C° 0 mm 2 mps 757 mmHg 79%
    23:00 +16°C° 0 mm 2 mps 757 mmHg 83%

    20 July, Saturday

    Time Temperature Precipitation Wind Pressure Humidity
    00:00 +15°C° 0 mm 2 mps 757 mmHg 86%
    01:00 +14°C° 0 mm 2 mps 757 mmHg 89%
    02:00 +14°C° 0 mm 1 mps 757 mmHg 90%
    03:00 +14°C° 0 mm 1 mps 757 mmHg 91%
    04:00 +14°C° 0 mm 1 mps 757 mmHg 91%
    05:00 +16°C° 0 mm 1 mps 757 mmHg 82%
    06:00 +19°C° 0 mm 1 mps 758 mmHg 73%
    07:00 +20°C° 0 mm 1 mps 758 mmHg 64%
    08:00 +20°C° 0 mm 2 mps 758 mmHg 60%
    09:00 +21°C° 0 mm 2 mps 758 mmHg 55%
    10:00 +22°C° 0 mm 3 mps 758 mmHg 51%
    11:00 +22°C° 0 mm 3 mps 758 mmHg 50%
    12:00 +23°C° 0 mm 4 mps 758 mmHg 49%
    13:00 +23°C° 0 mm 4 mps 758 mmHg 48%
    14:00 +23°C° 0 mm 4 mps 758 mmHg 50%
    15:00 +22°C° 0 mm 4 mps 758 mmHg 51%
    16:00 +22°C° 0 mm 4 mps 758 mmHg 52%
    17:00 +21°C° 0 mm 4 mps 758 mmHg 57%
    18:00 +20°C° 0 mm 3 mps 758 mmHg 63%
    19:00 +19°C° 0 mm 3 mps 758 mmHg 68%
    20:00 +18°C° 0 mm 3 mps 759 mmHg 74%
    21:00 +17°C° 0 mm 3 mps 759 mmHg 79%
    22:00 +15°C° 0 mm 2 mps 759 mmHg 85%
    23:00 +16°C° 0 mm 3 mps 759 mmHg 84%

    21 July, Sunday

    Time Temperature Precipitation Wind Pressure Humidity
    00:00 +16°C° 0 mm 3 mps 759 mmHg 84%
    01:00 +16°C° 0 mm 3 mps 758 mmHg 83%
    02:00 +16°C° 0 mm 3 mps 758 mmHg 83%
    03:00 +16°C° 0 mm 3 mps 758 mmHg 83%
    04:00 +16°C° 0 mm 3 mps 758 mmHg 82%
    05:00 +17°C° 0 mm 4 mps 757 mmHg 81%
    06:00 +18°C° 0 mm 4 mps 757 mmHg 79%
    07:00 +19°C° 0 mm 4 mps 757 mmHg 78%
    08:00 +21°C° 0 mm 4 mps 757 mmHg 75%
    09:00 +22°C° 0 mm 4 mps 757 mmHg 71%
    10:00 +23°C° 0 mm 4 mps 758 mmHg 67%
    11:00 +24°C° 0.3 mm 3 mps 758 mmHg 71%
    12:00 +22°C° 0.3 mm 3 mps 758 mmHg 75%
    13:00 +23°C° 0.3 mm 2 mps 757 mmHg 78%
    14:00 +21°C° 0.3 mm 2 mps 757 mmHg 82%
    15:00 +21°C° 0.3 mm 2 mps 757 mmHg 86%
    16:00 +20°C° 0.3 mm 2 mps 757 mmHg 89%
    17:00 +19°C° 0.1 mm 2 mps 758 mmHg 91%
    18:00 +20°C° 0.1 mm 1 mps 758 mmHg 92%
    19:00 +20°C° 0.1 mm 1 mps 758 mmHg 93%
    20:00 +19°C° 0.4 mm 1 mps 758 mmHg 94%
    21:00 +19°C° 0.4 mm 1 mps 758 mmHg 96%
    22:00 +19°C° 0.4 mm 1 mps 759 mmHg 97%
    23:00 +19°C° 0.3 mm 1 mps 759 mmHg 97%

    22 July, Monday

    Time Temperature Precipitation Wind Pressure Humidity
    00:00 +18°C° 0.3 mm 1 mps 759 mmHg 98%
    01:00 +18°C° 0.3 mm 1 mps 759 mmHg 98%
    02:00 +17°C° 0.3 mm 2 mps 759 mmHg 98%
    03:00 +17°C° 0.3 mm 2 mps 759 mmHg 98%
    04:00 +17°C° 0.3 mm 2 mps 759 mmHg 98%
    05:00 +18°C° 0.1 mm 3 mps 760 mmHg 97%
    06:00 +18°C° 0.1 mm 3 mps 760 mmHg 95%
    07:00 +18°C° 0.1 mm 3 mps 760 mmHg 93%
    08:00 +19°C° 0 mm 3 mps 761 mmHg 90%
    09:00 +19°C° 0 mm 3 mps 761 mmHg 86%
    10:00 +20°C° 0 mm 2 mps 761 mmHg 83%
    11:00 +21°C° 0 mm 3 mps 761 mmHg 77%
    12:00 +22°C° 0 mm 3 mps 762 mmHg 72%
    13:00 +24°C° 0 mm 3 mps 762 mmHg 66%
    14:00 +24°C° 0 mm 3 mps 762 mmHg 65%
    15:00 +24°C° 0 mm 3 mps 762 mmHg 64%
    16:00 +24°C° 0 mm 3 mps 762 mmHg 63%
    17:00 +22°C° 0 mm 3 mps 762 mmHg 65%
    18:00 +21°C° 0 mm 3 mps 762 mmHg 67%
    19:00 +20°C° 0 mm 2 mps 762 mmHg 69%
    20:00 +19°C° 0 mm 2 mps 763 mmHg 76%
    21:00 +17°C° 0 mm 2 mps 763 mmHg 82%
    22:00 +16°C° 0 mm 2 mps 763 mmHg 89%
    23:00 +16°C° 0 mm 2 mps 763 mmHg 89%
    Show more